Location: Titusville
(28.6119°N, 80.8078°W)
Time: 04:16:03
(UTC-04:00)

OTV 5 (USA 277) - Visible Passes

Search period start: 22 October 2018 00:00
Search period end: 01 November 2018 00:00
Orbit: 387 x 394 km, 54.5° (Epoch: 08 September)

Date Brightness Start Highest point End Pass type
(mag) Time Alt. Az. Time Alt. Az. Time Alt. Az.
22 Oct ? 20:13:41 10° WSW 20:16:43 41° NW 20:17:21 36° NNW visible
23 Oct ? 19:17:12 10° SSW 19:20:19 60° SE 19:23:27 10° NE visible
24 Oct ? 19:57:28 10° W 19:59:51 19° NW 20:02:14 10° N visible
